When you browse on this site, cookies collect data to enhance your experience and personalize the content and advertising you see.
Visit our Privacy Policy to learn more. By continuing to use the site, you agree to this use of cookies and data.
  • In Lithuania
  • List of Countries
  • For 7 days
  • Water Temperature
  • Satellite Maps
  • Weather Map
  • Weather Widgets
  • user-avatar
    Login

    Hourly Weather Mendoza

    Today, 20 February, Wednesday

    Time Temperature Precipitation Wind Pressure Humidity
    00:00 +30°C° 0.1 mm 1 mps 697 mmHg 41%
    01:00 +30°C° 0 mm 3 mps 696 mmHg 36%
    02:00 +29°C° 0 mm 3 mps 696 mmHg 37%
    03:00 +29°C° 0 mm 2 mps 696 mmHg 38%
    04:00 +28°C° 0 mm 2 mps 696 mmHg 39%
    05:00 +29°C° 0 mm 2 mps 696 mmHg 37%
    06:00 +29°C° 0 mm 2 mps 696 mmHg 35%
    07:00 +30°C° 0 mm 3 mps 696 mmHg 33%
    08:00 +31°C° 0 mm 3 mps 696 mmHg 31%
    09:00 +33°C° 0 mm 3 mps 696 mmHg 30%
    10:00 +34°C° 0 mm 3 mps 696 mmHg 29%
    11:00 +35°C° 0 mm 3 mps 696 mmHg 28%
    12:00 +36°C° 0 mm 3 mps 696 mmHg 26%
    13:00 +37°C° 0 mm 3 mps 695 mmHg 25%
    14:00 +38°C° 0 mm 3 mps 695 mmHg 25%
    15:00 +38°C° 0 mm 3 mps 694 mmHg 25%
    16:00 +38°C° 0 mm 2 mps 694 mmHg 24%
    17:00 +37°C° 0 mm 2 mps 694 mmHg 27%
    18:00 +36°C° 0 mm 2 mps 694 mmHg 30%
    19:00 +35°C° 0 mm 2 mps 694 mmHg 33%
    20:00 +34°C° 0 mm 2 mps 695 mmHg 35%
    21:00 +32°C° 0 mm 2 mps 695 mmHg 37%
    22:00 +32°C° 0 mm 2 mps 695 mmHg 39%
    23:00 +31°C° 0 mm 2 mps 695 mmHg 38%

    Tomorrow, 21 February, Thursday

    Time Temperature Precipitation Wind Pressure Humidity
    00:00 +31°C° 0 mm 2 mps 695 mmHg 38%
    01:00 +30°C° 0 mm 1 mps 695 mmHg 37%
    02:00 +30°C° 0 mm 2 mps 695 mmHg 37%
    03:00 +29°C° 0 mm 3 mps 695 mmHg 36%
    04:00 +29°C° 0 mm 4 mps 695 mmHg 36%
    05:00 +28°C° 0 mm 5 mps 696 mmHg 41%
    06:00 +28°C° 0 mm 7 mps 696 mmHg 47%
    07:00 +28°C° 0 mm 8 mps 696 mmHg 53%
    08:00 +29°C° 0 mm 8 mps 697 mmHg 49%
    09:00 +30°C° 0 mm 7 mps 697 mmHg 45%
    10:00 +33°C° 0 mm 7 mps 697 mmHg 41%
    11:00 +34°C° 0 mm 6 mps 697 mmHg 38%
    12:00 +35°C° 0 mm 5 mps 697 mmHg 34%
    13:00 +36°C° 0 mm 5 mps 696 mmHg 30%
    14:00 +36°C° 0 mm 4 mps 696 mmHg 30%
    15:00 +36°C° 0 mm 4 mps 695 mmHg 30%
    16:00 +37°C° 0 mm 3 mps 695 mmHg 29%
    17:00 +36°C° 0 mm 3 mps 695 mmHg 32%
    18:00 +35°C° 0 mm 3 mps 696 mmHg 34%
    19:00 +34°C° 0 mm 3 mps 696 mmHg 36%
    20:00 +33°C° 0 mm 3 mps 696 mmHg 38%
    21:00 +33°C° 0 mm 3 mps 697 mmHg 41%
    22:00 +31°C° 0 mm 3 mps 697 mmHg 43%
    23:00 +30°C° 0 mm 4 mps 697 mmHg 46%

    Day after tomorrow, 22 February, Friday

    Time Temperature Precipitation Wind Pressure Humidity
    00:00 +30°C° 0 mm 5 mps 696 mmHg 49%
    01:00 +29°C° 0 mm 6 mps 696 mmHg 51%
    02:00 +28°C° 0 mm 6 mps 696 mmHg 57%
    03:00 +27°C° 0 mm 6 mps 696 mmHg 63%
    04:00 +26°C° 0 mm 6 mps 696 mmHg 69%
    05:00 +26°C° 0 mm 6 mps 696 mmHg 68%
    06:00 +26°C° 0 mm 6 mps 697 mmHg 67%
    07:00 +26°C° 0 mm 6 mps 697 mmHg 66%
    08:00 +27°C° 0 mm 6 mps 697 mmHg 61%
    09:00 +29°C° 0 mm 6 mps 698 mmHg 57%
    10:00 +30°C° 0 mm 6 mps 698 mmHg 52%
    11:00 +32°C° 0 mm 6 mps 698 mmHg 47%
    12:00 +33°C° 0 mm 6 mps 697 mmHg 42%
    13:00 +33°C° 0 mm 5 mps 697 mmHg 36%
    14:00 +34°C° 0 mm 5 mps 697 mmHg 35%
    15:00 +34°C° 0 mm 5 mps 697 mmHg 34%
    16:00 +34°C° 0 mm 5 mps 697 mmHg 33%
    17:00 +33°C° 0 mm 5 mps 697 mmHg 37%
    18:00 +32°C° 0 mm 4 mps 697 mmHg 42%
    19:00 +30°C° 0 mm 4 mps 698 mmHg 46%
    20:00 +29°C° 0 mm 4 mps 698 mmHg 51%
    21:00 +28°C° 0 mm 3 mps 698 mmHg 55%
    22:00 +28°C° 0 mm 3 mps 699 mmHg 60%
    23:00 +27°C° 0 mm 3 mps 698 mmHg 63%

    23 February, Saturday

    Time Temperature Precipitation Wind Pressure Humidity
    00:00 +26°C° 0 mm 3 mps 698 mmHg 66%
    01:00 +26°C° 0 mm 3 mps 697 mmHg 69%
    02:00 +25°C° 0 mm 4 mps 697 mmHg 72%
    03:00 +25°C° 0 mm 4 mps 696 mmHg 76%
    04:00 +23°C° 0 mm 4 mps 696 mmHg 80%
    05:00 +23°C° 0 mm 4 mps 696 mmHg 79%
    06:00 +23°C° 0 mm 4 mps 696 mmHg 77%
    07:00 +23°C° 0 mm 4 mps 696 mmHg 76%
    08:00 +25°C° 0 mm 4 mps 696 mmHg 66%
    09:00 +27°C° 0 mm 4 mps 695 mmHg 55%
    10:00 +29°C° 0 mm 4 mps 695 mmHg 45%
    11:00 +30°C° 0 mm 4 mps 694 mmHg 41%
    12:00 +32°C° 0 mm 4 mps 694 mmHg 37%
    13:00 +33°C° 0 mm 4 mps 693 mmHg 34%
    14:00 +34°C° 0 mm 4 mps 693 mmHg 32%
    15:00 +34°C° 0 mm 3 mps 693 mmHg 31%
    16:00 +34°C° 0 mm 3 mps 692 mmHg 30%
    17:00 +33°C° 0 mm 3 mps 693 mmHg 32%
    18:00 +31°C° 0 mm 3 mps 693 mmHg 34%
    19:00 +30°C° 0 mm 2 mps 693 mmHg 36%
    20:00 +29°C° 0 mm 3 mps 694 mmHg 38%
    21:00 +29°C° 0 mm 3 mps 694 mmHg 40%
    22:00 +28°C° 0 mm 3 mps 694 mmHg 42%
    23:00 +28°C° 0 mm 4 mps 694 mmHg 43%

    24 February, Sunday

    Time Temperature Precipitation Wind Pressure Humidity
    00:00 +27°C° 0 mm 4 mps 694 mmHg 44%
    01:00 +27°C° 0 mm 5 mps 694 mmHg 44%
    02:00 +26°C° 0 mm 5 mps 694 mmHg 40%
    03:00 +24°C° 0 mm 6 mps 694 mmHg 35%
    04:00 +23°C° 0 mm 7 mps 694 mmHg 31%
    05:00 +23°C° 0 mm 6 mps 695 mmHg 28%
    06:00 +22°C° 0 mm 5 mps 695 mmHg 25%
    07:00 +21°C° 0 mm 4 mps 696 mmHg 21%
    08:00 +22°C° 0 mm 4 mps 696 mmHg 21%
    09:00 +23°C° 0 mm 4 mps 696 mmHg 21%
    10:00 +25°C° 0 mm 4 mps 696 mmHg 21%
    11:00 +26°C° 0 mm 4 mps 695 mmHg 21%
    12:00 +27°C° 0 mm 4 mps 695 mmHg 21%
    13:00 +28°C° 0 mm 3 mps 695 mmHg 21%
    14:00 +28°C° 0 mm 3 mps 695 mmHg 21%
    15:00 +29°C° 0 mm 3 mps 694 mmHg 21%
    16:00 +29°C° 0 mm 3 mps 694 mmHg 21%
    17:00 +28°C° 0 mm 2 mps 694 mmHg 23%
    18:00 +26°C° 0 mm 2 mps 695 mmHg 25%
    19:00 +25°C° 0 mm 1 mps 695 mmHg 27%
    20:00 +25°C° 0 mm 2 mps 695 mmHg 27%
    21:00 +24°C° 0 mm 2 mps 696 mmHg 27%
    22:00 +22°C° 0 mm 3 mps 696 mmHg 27%
    23:00 +21°C° 0 mm 2 mps 696 mmHg 29%

    25 February, Monday

    Time Temperature Precipitation Wind Pressure Humidity
    00:00 +21°C° 0 mm 2 mps 696 mmHg 30%
    01:00 +20°C° 0 mm 2 mps 695 mmHg 32%
    02:00 +19°C° 0 mm 2 mps 695 mmHg 34%
    03:00 +18°C° 0 mm 3 mps 695 mmHg 36%
    04:00 +18°C° 0 mm 3 mps 696 mmHg 38%
    05:00 +18°C° 0 mm 4 mps 696 mmHg 34%
    06:00 +18°C° 0 mm 4 mps 697 mmHg 30%
    07:00 +18°C° 0 mm 4 mps 697 mmHg 26%
    08:00 +20°C° 0 mm 5 mps 698 mmHg 23%
    09:00 +21°C° 0 mm 5 mps 698 mmHg 20%
    10:00 +23°C° 0 mm 5 mps 698 mmHg 17%
    11:00 +23°C° 0 mm 5 mps 698 mmHg 17%
    12:00 +25°C° 0 mm 5 mps 697 mmHg 16%
    13:00 +26°C° 0 mm 5 mps 697 mmHg 16%
    14:00 +26°C° 0 mm 4 mps 697 mmHg 16%
    15:00 +26°C° 0 mm 4 mps 697 mmHg 16%
    16:00 +26°C° 0 mm 3 mps 696 mmHg 17%
    17:00 +25°C° 0 mm 3 mps 697 mmHg 18%
    18:00 +23°C° 0 mm 2 mps 697 mmHg 20%
    19:00 +22°C° 0 mm 1 mps 698 mmHg 21%
    20:00 +22°C° 0 mm 1 mps 698 mmHg 21%
    21:00 +21°C° 0 mm 2 mps 698 mmHg 21%
    22:00 +21°C° 0 mm 2 mps 699 mmHg 22%
    23:00 +20°C° 0 mm 2 mps 698 mmHg 23%
    Show more